Location: Silverdale
(47.6506°N, 122.6941°W)
Time: 10:09:24
(UTC+00:00)

Courier 1B - Pass Details

Date: 10 October 2022
Orbit: 962 x 1209 km, 28.3° (Epoch: 04 December)

Event Time Altitude Azimuth Distance (km) Brightness Sun altitude
Rises 23:15:18 0° 246° (WSW) 4,058 12.2 20.2°
Reaches altitude 10° 23:20:39 10° 216° (SW) 3,042 11.7 19.5°
Maximum altitude 23:22:53 11° 198° (SSW) 2,906 11.0 19.2°
Drops below altitude 10° 23:25:04 10° 181° (S) 2,989 10.6 18.9°
Sets 23:30:12 0° 150° (SSE) 3,876 10.7 18.2°
